Weather History for Albuquerque Double Eagle, NM

Change the Weather History Date:

Wednesday, February 13, 2013

  Actual Average Record
Temperature  
Mean Temperature 27 °F -  
Max Temperature 42 °F - - ()
Min Temperature 12 °F - - ()
Degree Days  
Heating Degree Days 38    
Moisture  
Dew Point 7 °F    
Average Humidity 45    
Maximum Humidity 62    
Minimum Humidity 26    
Precipitation  
Precipitation 0.00 in - - ()
Sea Level Pressure  
Sea Level Pressure 30.13 in    
Wind  
Wind Speed 8 mph (NNW)    
Max Wind Speed 20 mph    
Max Gust Speed 24 mph    
Visibility 10 miles    
Events      
T = Trace of Precipitation, MM = Missing Value Source: NWS Daily Summary

Daily Weather History Graph

Daily Weather History Graph

Search for Another Location

Airport:

Trip Planner

Search our weather history database for the weather conditions in past years. The results will help you decide how hot, cold, wet, or windy it might be!

Date:

Astronomy

Feb. 13, 2013 Rise Set
Actual Time 6:55 AM MST 5:48 PM MST
Civil Twilight 6:29 AM MST 6:14 PM MST
Nautical Twilight 5:59 AM MST 6:43 PM MST
Astronomical Twilight 5:29 AM MST 7:13 PM MST
Moon 8:36 AM MST (2/13) 9:41 PM MST (2/13)
Length of Visible Light 11h 45m
Length of Day
10h 53m
Waxing Crescent, 14% of the Moon is Illuminated
Feb 13
Waxing Crescent
Feb 17
First Quarter
Feb 25
Full
Mar 4
Last Quarter
Mar 11
New

Hourly Weather History & Observations

Time (MST) Temp. Windchill Dew Point Humidity Pressure Visibility Wind Dir Wind Speed Gust Speed Precip Events Conditions
12:15 AM 17.6 °F 8.2 °F 1.4 °F 49% 30.16 in 10.0 mi North 6.9 mph - N/A   Clear
12:35 AM 19.4 °F 10.4 °F 3.2 °F 49% 30.16 in 10.0 mi North 6.9 mph - N/A   Clear
12:55 AM 12.2 °F - -0.4 °F 57% 30.16 in 10.0 mi Calm Calm - N/A   Clear
1:15 AM 19.4 °F 7.9 °F 3.2 °F 49% 30.15 in 10.0 mi NW 10.4 mph - N/A   Clear
1:35 AM 19.4 °F 8.6 °F 5.0 °F 54% 30.16 in 10.0 mi NNW 9.2 mph - N/A   Clear
1:55 AM 21.2 °F 10.9 °F 5.0 °F 50% 30.16 in 10.0 mi NNW 9.2 mph - N/A   Clear
2:15 AM 17.6 °F 6.4 °F 5.0 °F 58% 30.16 in 10.0 mi NNW 9.2 mph - N/A   Clear
2:35 AM 19.4 °F 9.5 °F 5.0 °F 54% 30.16 in 10.0 mi NW 8.1 mph - N/A   Clear
2:55 AM 19.4 °F 9.5 °F 5.0 °F 54% 30.15 in 10.0 mi NNW 8.1 mph - N/A   Clear
3:15 AM 19.4 °F - 5.0 °F 54% 30.15 in 10.0 mi Calm Calm - N/A   Clear
3:35 AM 19.4 °F 10.4 °F 5.0 °F 54% 30.15 in 10.0 mi NW 6.9 mph - N/A   Clear
3:55 AM 17.6 °F - 5.0 °F 58% 30.15 in 10.0 mi Calm Calm - N/A   Clear
4:15 AM 17.6 °F 7.3 °F 5.0 °F 58% 30.14 in 10.0 mi North 8.1 mph - N/A   Clear
4:35 AM 17.6 °F 9.3 °F 5.0 °F 58% 30.14 in 10.0 mi NNW 5.8 mph - N/A   Clear
5:50 AM 14.0 °F 5.1 °F 3.2 °F 62% 30.14 in 10.0 mi WSW 5.8 mph - N/A   Clear
6:50 AM 14.0 °F 5.1 °F 1.4 °F 57% 30.15 in 10.0 mi WNW 5.8 mph - N/A   Clear
7:50 AM 15.8 °F - 5.0 °F 62% 30.16 in 10.0 mi Calm Calm - N/A   Clear
8:50 AM 26.6 °F 13.8 °F 6.8 °F 43% 30.16 in 10.0 mi NNW 17.3 mph - N/A   Clear
9:50 AM 32.0 °F 22.5 °F 6.8 °F 35% 30.16 in 10.0 mi NNW 12.7 mph - N/A   Clear
10:50 AM 32.0 °F 24.2 °F 6.8 °F 35% 30.16 in 10.0 mi NW 9.2 mph - N/A   Clear
11:50 AM 35.6 °F 28.0 °F 6.8 °F 30% 30.12 in 10.0 mi West 10.4 mph - N/A   Clear
12:50 PM 39.2 °F 33.6 °F 8.6 °F 28% 30.10 in 10.0 mi NW 8.1 mph 16.1 mph N/A   Clear
1:50 PM 41.0 °F 33.9 °F 8.6 °F 26% 30.06 in 10.0 mi NW 12.7 mph 24.2 mph N/A   Clear
2:50 PM 42.8 °F 34.3 °F 10.4 °F 27% 30.06 in 10.0 mi NNW 19.6 mph - N/A   Clear
3:50 PM 42.8 °F 34.5 °F 10.4 °F 27% 30.05 in 10.0 mi NW 18.4 mph - N/A   Clear
4:50 PM 41.0 °F 32.2 °F 8.6 °F 26% 30.05 in 10.0 mi NNW 18.4 mph - N/A   Clear
5:50 PM 37.4 °F 29.3 °F 8.6 °F 30% 30.06 in 10.0 mi NNW 12.7 mph - N/A   Clear
6:50 PM 35.6 °F 30.7 °F 8.6 °F 33% 30.09 in 10.0 mi NNW 5.8 mph - N/A   Clear
7:50 PM 35.6 °F 27.5 °F 10.4 °F 35% 30.11 in 10.0 mi WNW 11.5 mph - N/A   Clear
8:50 PM 33.8 °F 25.3 °F 10.4 °F 38% 30.11 in 10.0 mi WNW 11.5 mph - N/A   Clear
9:15 PM 32.0 °F 26.4 °F 8.6 °F 38% 30.12 in 10.0 mi NNE 5.8 mph - N/A   Clear
9:35 PM 28.4 °F 23.3 °F 8.6 °F 43% 30.12 in 10.0 mi NNW 4.6 mph - N/A   Clear
9:55 PM 28.4 °F 21.2 °F 8.6 °F 43% 30.12 in 10.0 mi NNW 6.9 mph - N/A   Clear
10:15 PM 28.4 °F 22.2 °F 8.6 °F 43% 30.13 in 10.0 mi NNW 5.8 mph - N/A   Clear
10:35 PM 28.4 °F 22.2 °F 8.6 °F 43% 30.13 in 10.0 mi WNW 5.8 mph - N/A   Clear
10:55 PM 28.4 °F 17.5 °F 10.4 °F 47% 30.12 in 10.0 mi North 13.8 mph - N/A   Clear
11:15 PM 28.4 °F 18.0 °F 10.4 °F 47% 30.12 in 10.0 mi North 12.7 mph - N/A   Clear
11:35 PM 28.4 °F 19.1 °F 10.4 °F 47% 30.13 in 10.0 mi North 10.4 mph - N/A   Clear
11:55 PM 28.4 °F 20.4 °F 10.4 °F 47% 30.12 in 10.0 mi North 8.1 mph - N/A   Clear